Ponca City, OK

8:05 AM CDT on May 24, 2017 (GMT -0500)
Ponca City Municipal

Weather History for KPNC - November, 2012

Change the Weather History Date:

Sunday, November 25, 2012

  Actual Average Record
Temperature  
Mean Temperature 49 °F -  
Max Temperature 63 °F 58 °F 80 °F (1965)
Min Temperature 35 °F 34 °F 19 °F (2010)
Degree Days  
Heating Degree Days 16    
Moisture  
Dew Point 26 °F    
Average Humidity 42    
Maximum Humidity 64    
Minimum Humidity 26    
Precipitation  
Precipitation 0.00 in - - ()
Sea Level Pressure  
Sea Level Pressure 29.89 in    
Wind  
Wind Speed 4 mph (ESE)    
Max Wind Speed 15 mph    
Max Gust Speed -    
Visibility 10 miles    
Events      
Averages and records for this station are not official NWS values.
T = Trace of Precipitation, MM = Missing Value Source: NWS Daily Summary

Daily Weather History Graph

Daily Weather History Graph

Search for Another Location

Airport or City:

Trip Planner

Search our weather history database for the weather conditions in past years. The results will help you decide how hot, cold, wet, or windy it might be!

Date:

Astronomy

Nov. 25, 2012 Rise Set
Actual Time 7:17 AM CST 5:13 PM CST
Civil Twilight 6:48 AM CST 5:42 PM CST
Nautical Twilight 6:17 AM CST 6:13 PM CST
Astronomical Twilight 5:46 AM CST 6:44 PM CST
Moon 3:29 PM CST (11/25) 4:35 AM CST (11/25)
Length of Visible Light 10h 53m
Length of Day
9h 56m
Waxing Gibbous, 93% of the Moon is Illuminated
Nov 25
Waxing Gibbous
Nov 28
Full
Dec 6
Last Quarter
Dec 13
New
Dec 19
First Quarter

Hourly Weather History & Observations

Time (CST) Temp. Windchill Dew Point Humidity Pressure Visibility Wind Dir Wind Speed Gust Speed Precip Events Conditions
12:53 AM 46.0 °F 43.1 °F 19.9 °F 35% 29.94 in 10.0 mi South 5.8 mph - N/A   Clear
2:53 AM 45.0 °F 43.5 °F 21.0 °F 39% 29.90 in 10.0 mi South 3.5 mph - N/A   Clear
3:53 AM 44.1 °F - 21.9 °F 42% 29.89 in 10.0 mi Calm Calm - N/A   Clear
4:53 AM 42.1 °F 40.2 °F 21.9 °F 45% 29.89 in 10.0 mi South 3.5 mph - N/A   Clear
5:53 AM 37.0 °F - 23.0 °F 57% 29.90 in 10.0 mi Calm Calm - N/A   Clear
6:53 AM 37.9 °F - 23.0 °F 55% 29.91 in 10.0 mi Calm Calm - N/A   Clear
7:53 AM 35.1 °F - 24.1 °F 64% 29.92 in 10.0 mi Calm Calm - N/A   Clear
8:53 AM 46.0 °F 44.8 °F 25.0 °F 44% 29.91 in 10.0 mi SE 3.5 mph - N/A   Clear
9:53 AM 50.0 °F - 24.1 °F 36% 29.92 in 10.0 mi South 5.8 mph - N/A   Clear
10:53 AM 54.0 °F - 25.0 °F 33% 29.91 in 10.0 mi Variable 3.5 mph - N/A   Clear
11:53 AM 57.0 °F - 26.1 °F 30% 29.88 in 10.0 mi Variable 3.5 mph - N/A   Clear
12:53 PM 60.1 °F - 27.0 °F 28% 29.85 in 10.0 mi East 4.6 mph - N/A   Clear
1:53 PM 62.1 °F - 27.0 °F 26% 29.83 in 10.0 mi East 8.1 mph - N/A   Clear
2:53 PM 63.0 °F - 28.0 °F 27% 29.83 in 10.0 mi East 6.9 mph - N/A   Clear
3:53 PM 63.0 °F - 28.0 °F 27% 29.83 in 10.0 mi East 4.6 mph - N/A   Clear
4:53 PM 60.1 °F - 28.9 °F 31% 29.85 in 10.0 mi Calm Calm - N/A   Clear
5:53 PM 52.0 °F - 30.0 °F 43% 29.86 in 10.0 mi Calm Calm - N/A   Clear
6:53 PM 46.0 °F 43.9 °F 30.9 °F 56% 29.88 in 10.0 mi ENE 4.6 mph - N/A   Clear
7:53 PM 50.0 °F - 32.0 °F 50% 29.88 in 10.0 mi East 10.4 mph - N/A   Clear
9:53 PM 46.9 °F - 30.9 °F 54% 29.90 in 10.0 mi ENE 10.4 mph - N/A   Unknown
10:53 PM 46.9 °F - 30.9 °F 54% 29.90 in 10.0 mi ENE 10.4 mph - N/A   Clear
11:53 PM 48.0 °F - 30.9 °F 52% 29.90 in 10.0 mi ENE 15.0 mph - N/A   Clear